,,,PA_Meas_PMT16A,,PR_Meas_QMR101_102,,RH_Meas_QMH101,,SR_Meas_QMS101,,TA_Meas_QMH101,,GenWind,,GenWind,
date,time,status,PA,status,PR,status,RH,status,SR,status,TA,status,DirAvg,status,SpdAvg,
2009-02-25, 00:00:04,VALID,1001.86,VALID,0,VALID,89.9903,VALID,0,VALID,25.5532,VALID,19,VALID,1.175,
2009-02-25, 00:01:04,VALID,1001.84,VALID,0,VALID,90.1047,VALID,0,VALID,25.5337,VALID,24,VALID,1.41055,
2009-02-25, 00:02:04,VALID,1001.82,VALID,0,VALID,90.1581,VALID,0,VALID,25.5532,VALID,21,VALID,1.17578,
2009-02-25, 00:03:04,VALID,1001.81,VALID,0,VALID,90.1886,VALID,0,VALID,25.5513,VALID,26,VALID,1.25078,
2009-02-25, 00:04:04,VALID,1001.8,VALID,0,VALID,90.1886,VALID,0,VALID,25.5318,VALID,18,VALID,0.865625,
2009-02-25, 00:05:04,VALID,1001.79,VALID,0,VALID,90.1123,VALID,0.100563,VALID,25.5727,VALID,32,VALID,1.35938,
2009-02-25, 00:06:04,VALID,1001.76,VALID,0,VALID,90.1657,VALID,0,VALID,25.5513,VALID,24,VALID,1.00078,
2009-02-25, 00:07:04,VALID,1001.75,VALID,0,VALID,90.1429,VALID,0.100563,VALID,25.5513,VALID,6,VALID,0.839063,
2009-02-25, 00:08:04,VALID,1001.74,VALID,0,VALID,90.1429,VALID,0.100563,VALID,25.5513,VALID,39,VALID,0.989453,
2009-02-25, 00:09:04,VALID,1001.72,VALID,0,VALID,90.3183,VALID,0,VALID,25.5123,VALID,1,VALID,0.792188,
2009-02-25, 00:10:04,VALID,1001.73,VALID,0,VALID,90.3946,VALID,0,VALID,25.5337,VALID,12,VALID,1.36563,
2009-02-25, 00:11:04,VALID,1001.72,VALID,0,VALID,90.2268,VALID,0,VALID,25.5357,VALID,34,VALID,1.56172,
2009-02-25, 00:12:04,VALID,1001.71,VALID,0,VALID,90.2649,VALID,0,VALID,25.6155,VALID,12,VALID,1.23164,
2009-02-25, 00:13:04,VALID,1001.71,VALID,0,VALID,90.2115,VALID,0,VALID,25.5532,VALID,20,VALID,1.15859,
2009-02-25, 00:14:04,VALID,1001.68,VALID,0,VALID,90.2573,VALID,0,VALID,25.5746,VALID,9,VALID,0.853516,
2009-02-25, 00:15:04,VALID,1001.68,VALID,0,VALID,90.2649,VALID,0,VALID,25.5337,VALID,37,VALID,1.21602,
2009-02-25, 00:16:04,VALID,1001.68,VALID,0,VALID,90.2954,VALID,0,VALID,25.5532,VALID,15,VALID,1.00586,
2009-02-25, 00:17:04,VALID,1001.64,VALID,0,VALID,90.1505,VALID,0,VALID,25.5727,VALID,4,VALID,0.885938,
2009-02-25, 00:18:04,VALID,1001.64,VALID,0,VALID,89.9445,VALID,0,VALID,25.5727,VALID,23,VALID,1.66328,
2009-02-25, 00:19:04,VALID,1001.66,VALID,0,VALID,89.9064,VALID,0,VALID,25.6116,VALID,30,VALID,0.948438,
2009-02-25, 00:20:04,VALID,1001.65,VALID,0,VALID,89.9979,VALID,0,VALID,25.6116,VALID,4,VALID,0.721094,
2009-02-25, 00:21:04,VALID,1001.67,VALID,0,VALID,89.7843,VALID,0,VALID,25.6136,VALID,27,VALID,1.42969,
2009-02-25, 00:22:04,VALID,1001.67,VALID,0,VALID,89.6241,VALID,0,VALID,25.5921,VALID,13,VALID,1.86289,
2009-02-25, 00:23:04,VALID,1001.72,VALID,0,VALID,89.6317,VALID,0,VALID,25.6311,VALID,19,VALID,1.21602,
2009-02-25, 00:24:04,VALID,1001.72,VALID,0,VALID,89.502,VALID,0,VALID,25.6311,VALID,26,VALID,1.14922,
2009-02-25, 00:25:04,VALID,1001.73,VALID,0,VALID,89.5402,VALID,0,VALID,25.672,VALID,34,VALID,0.698438,
2009-02-25, 00:26:04,VALID,1001.76,VALID,0,VALID,89.3571,VALID,0,VALID,25.633,VALID,25,VALID,0.623047,
2009-02-25, 00:27:04,VALID,1001.74,VALID,0,VALID,89.4639,VALID,0,VALID,25.633,VALID,22,VALID,1.14883,
2009-02-25, 00:28:04,VALID,1001.77,VALID,0,VALID,89.4944,VALID,0,VALID,25.5921,VALID,20,VALID,0.90625,
2009-02-25, 00:29:04,VALID,1001.78,VALID,0,VALID,89.441,VALID,0,VALID,25.5921,VALID,19,VALID,1.0918,
2009-02-25, 00:30:04,VALID,1001.77,VALID,0,VALID,89.2121,VALID,0,VALID,25.633,VALID,20,VALID,1.03633,
2009-02-25, 00:31:04,VALID,1001.77,VALID,0,VALID,88.9909,VALID,0,VALID,25.5902,VALID,14,VALID,1.65937,
2009-02-25, 00:32:04,VALID,1001.81,VALID,0,VALID,89.029,VALID,0,VALID,25.6506,VALID,8,VALID,0.942969,
2009-02-25, 00:33:04,VALID,1001.82,VALID,0,VALID,88.8536,VALID,0,VALID,25.6506,VALID,28,VALID,0.88125,
2009-02-25, 00:34:04,VALID,1001.79,VALID,0,VALID,88.907,VALID,0,VALID,25.6311,VALID,5,VALID,0.937891,
2009-02-25, 00:35:04,VALID,1001.77,VALID,0,VALID,88.8917,VALID,0,VALID,25.633,VALID,7,VALID,1.68203,
2009-02-25, 00:36:04,VALID,1001.76,VALID,0,VALID,89.0214,VALID,0,VALID,25.6311,VALID,355,VALID,1.17695,
2009-02-25, 00:37:04,VALID,1001.8,VALID,0,VALID,88.907,VALID,0,VALID,25.6311,VALID,8,VALID,1.03984,
2009-02-25, 00:38:04,VALID,1001.78,VALID,0,VALID,88.8612,VALID,0,VALID,25.6506,VALID,13,VALID,1.30508,
2009-02-25, 00:39:04,VALID,1001.8,VALID,0,VALID,88.9222,VALID,0,VALID,25.6311,VALID,35,VALID,1.12031,
2009-02-25, 00:40:04,VALID,1001.78,VALID,0,VALID,88.8917,VALID,0,VALID,25.6525,VALID,4,VALID,1.60312,
2009-02-25, 00:41:04,VALID,1001.75,VALID,0,VALID,88.7391,VALID,0,VALID,25.6311,VALID,47,VALID,1.63398,
2009-02-25, 00:42:04,VALID,1001.77,VALID,0,VALID,88.9527,VALID,0,VALID,25.6506,VALID,357,VALID,1.09258,
2009-02-25, 00:43:04,VALID,1001.77,VALID,0,VALID,88.8383,VALID,0,VALID,25.6525,VALID,18,VALID,1.70313,
2009-02-25, 00:44:04,VALID,1001.75,VALID,0,VALID,88.9451,VALID,0,VALID,25.6136,VALID,5,VALID,1.18398,
2009-02-25, 00:45:04,VALID,1001.73,VALID,0,VALID,88.9909,VALID,0,VALID,25.6136,VALID,19,VALID,1.78867,
2009-02-25, 00:46:04,VALID,1001.75,VALID,0,VALID,88.9222,VALID,0,VALID,25.5921,VALID,19,VALID,1.70234,
2009-02-25, 00:47:04,VALID,1001.71,VALID,0,VALID,88.907,VALID,0,VALID,25.6116,VALID,5,VALID,1.21328,
2009-02-25, 00:48:04,VALID,1001.7,VALID,0,VALID,88.907,VALID,0,VALID,25.6311,VALID,15,VALID,1.1207,
2009-02-25, 00:49:04,VALID,1001.72,VALID,0,VALID,89.0672,VALID,0,VALID,25.5921,VALID,9,VALID,1.09297,
2009-02-25, 00:50:04,VALID,1001.66,VALID,0,VALID,89.1892,VALID,0,VALID,25.5921,VALID,5,VALID,0.914453,
2009-02-25, 00:51:04,VALID,1001.68,VALID,0,VALID,89.2198,VALID,0,VALID,25.5532,VALID,348,VALID,0.705469,
2009-02-25, 00:52:04,VALID,1001.66,VALID,0,VALID,89.2884,VALID,0,VALID,25.5551,VALID,355,VALID,1.10156,
2009-02-25, 00:53:04,VALID,1001.68,VALID,0,VALID,89.3876,VALID,0,VALID,25.5337,VALID,29,VALID,1.16211,
2009-02-25, 00:54:04,VALID,1001.66,VALID,0,VALID,89.3723,VALID,0,VALID,25.5551,VALID,24,VALID,1.02266,
2009-02-25, 00:55:04,VALID,1001.65,VALID,0,VALID,89.2884,VALID,0,VALID,25.5142,VALID,36,VALID,1.58633,
2009-02-25, 00:56:04,VALID,1001.64,VALID,0,VALID,89.3571,VALID,0,VALID,25.5532,VALID,20,VALID,1.11563,
2009-02-25, 00:57:04,VALID,1001.6,VALID,0,VALID,89.2808,VALID,0,VALID,25.5337,VALID,358,VALID,0.832812,
2009-02-25, 00:58:04,VALID,1001.61,VALID,0,VALID,89.3189,VALID,0,VALID,25.5337,VALID,6,VALID,0.759766,
2009-02-25, 00:59:04,VALID,1001.58,VALID,0,VALID,89.4105,VALID,0,VALID,25.5142,VALID,28,VALID,0.786719,
2009-02-25, 01:00:04,VALID,1001.54,VALID,0,VALID,89.3113,VALID,0,VALID,25.4948,VALID,360,VALID,1.44648,
2009-02-25, 01:01:04,VALID,1001.53,VALID,0,VALID,89.296,VALID,0,VALID,25.5142,VALID,12,VALID,1.1125,
2009-02-25, 01:02:04,VALID,1001.51,VALID,0,VALID,89.113,VALID,0,VALID,25.5337,VALID,15,VALID,1.95039,
2009-02-25, 01:03:04,VALID,1001.51,VALID,0,VALID,88.8307,VALID,0,VALID,25.5532,VALID,18,VALID,1.71328,
2009-02-25, 01:04:04,VALID,1001.49,VALID,0,VALID,88.8993,VALID,0,VALID,25.633,VALID,13,VALID,0.688672,
2009-02-25, 01:05:04,VALID,1001.51,VALID,0,VALID,88.8307,VALID,0,VALID,25.5921,VALID,40,VALID,1.23945,
2009-02-25, 01:06:04,VALID,1001.51,VALID,0,VALID,89.0519,VALID,0,VALID,25.5727,VALID,6,VALID,0.952734,
2009-02-25, 01:07:04,VALID,1001.53,VALID,0,VALID,88.9909,VALID,0,VALID,25.5532,VALID,20,VALID,1.56797,
2009-02-25, 01:08:04,VALID,1001.51,VALID,0,VALID,88.8002,VALID,0,VALID,25.5532,VALID,37,VALID,2.16523,
2009-02-25, 01:09:04,VALID,1001.52,VALID,0,VALID,88.8383,VALID,0,VALID,25.5727,VALID,29,VALID,0.983984,
2009-02-25, 01:10:04,VALID,1001.53,VALID,0,VALID,88.907,VALID,0,VALID,25.5727,VALID,7,VALID,0.910937,
2009-02-25, 01:11:04,VALID,1001.53,VALID,0,VALID,88.6781,VALID,0,VALID,25.5707,VALID,35,VALID,1.21211,
2009-02-25, 01:12:04,VALID,1001.54,VALID,0,VALID,88.9604,VALID,0,VALID,25.6116,VALID,14,VALID,0.817187,
2009-02-25, 01:13:04,VALID,1001.56,VALID,0,VALID,88.762,VALID,0,VALID,25.5513,VALID,30,VALID,1.00234,
2009-02-25, 01:14:04,VALID,1001.54,VALID,0,VALID,88.9299,VALID,0.100563,VALID,25.5707,VALID,13,VALID,0.537109,
2009-02-25, 01:15:04,VALID,1001.51,VALID,0,VALID,88.8688,VALID,0,VALID,25.5513,VALID,23,VALID,1.30625,
2009-02-25, 01:16:04,VALID,1001.51,VALID,0,VALID,88.8688,VALID,0,VALID,25.5707,VALID,19,VALID,0.765234,
2009-02-25, 01:17:04,VALID,1001.54,VALID,0,VALID,88.968,VALID,0,VALID,25.5727,VALID,20,VALID,0.770703,
2009-02-25, 01:18:04,VALID,1001.55,VALID,0,VALID,89.0519,VALID,0.100563,VALID,25.5318,VALID,29,VALID,0.593359,
2009-02-25, 01:19:04,VALID,1001.52,VALID,0,VALID,89.1664,VALID,0,VALID,25.5123,VALID,38,VALID,0.416406,
2009-02-25, 01:20:04,VALID,1001.54,VALID,0,VALID,89.2732,VALID,0,VALID,25.4948,VALID,21,VALID,1.11289,
2009-02-25, 01:21:04,VALID,1001.53,VALID,0,VALID,89.3189,VALID,0,VALID,25.4928,VALID,31,VALID,0.668359,
2009-02-25, 01:22:04,VALID,1001.52,VALID,0,VALID,89.3418,VALID,0,VALID,25.4734,VALID,30,VALID,0.658203,
2009-02-25, 01:23:04,VALID,1001.51,VALID,0,VALID,89.3342,VALID,0,VALID,25.4948,VALID,46,VALID,0.578516,
2009-02-25, 01:24:04,VALID,1001.51,VALID,0,VALID,89.4105,VALID,0.100563,VALID,25.4539,VALID,34,VALID,0.926562,
2009-02-25, 01:25:04,VALID,1001.48,VALID,0,VALID,89.3876,VALID,0,VALID,25.4734,VALID,21,VALID,0.878906,
2009-02-25, 01:26:04,VALID,1001.48,VALID,0,VALID,89.3266,VALID,0,VALID,25.4753,VALID,33,VALID,0.509766,
2009-02-25, 01:27:04,VALID,1001.45,VALID,0,VALID,89.2503,VALID,0,VALID,25.4753,VALID,42,VALID,1.20313,
2009-02-25, 01:28:04,VALID,1001.43,VALID,0,VALID,89.4334,VALID,0,VALID,25.4734,VALID,31,VALID,0.238281,
2009-02-25, 01:29:04,VALID,1001.43,VALID,0,VALID,89.3037,VALID,0,VALID,25.4948,VALID,36,VALID,0.642578,
2009-02-25, 01:30:04,VALID,1001.39,VALID,0,VALID,89.3494,VALID,0,VALID,25.4948,VALID,23,VALID,0.378125,
2009-02-25, 01:31:04,VALID,1001.37,VALID,0,VALID,89.3876,VALID,0.100563,VALID,25.4539,VALID,13,VALID,0.924609,
2009-02-25, 01:32:04,VALID,1001.37,VALID,0,VALID,89.5554,VALID,0,VALID,25.4344,VALID,8,VALID,1.1793,
2009-02-25, 01:33:04,VALID,1001.35,VALID,0,VALID,89.4639,VALID,0,VALID,25.4344,VALID,16,VALID,1.42461,
2009-02-25, 01:34:04,VALID,1001.33,VALID,0,VALID,89.1816,VALID,0,VALID,25.4948,VALID,27,VALID,1.51914,
2009-02-25, 01:35:04,VALID,1001.29,VALID,0,VALID,89.2655,VALID,0.100563,VALID,25.5532,VALID,24,VALID,0.680078,
2009-02-25, 01:36:04,VALID,1001.3,VALID,0,VALID,89.0138,VALID,0,VALID,25.5921,VALID,21,VALID,1.13867,
2009-02-25, 01:37:04,VALID,1001.26,VALID,0,VALID,88.9985,VALID,0,VALID,25.5707,VALID,24,VALID,0.615234,
2009-02-25, 01:38:04,VALID,1001.26,VALID,0,VALID,88.9527,VALID,0,VALID,25.5727,VALID,41,VALID,0.958984,
2009-02-25, 01:39:04,VALID,1001.21,VALID,0,VALID,89.0748,VALID,0,VALID,25.5513,VALID,17,VALID,1.05625,
2009-02-25, 01:40:04,VALID,1001.22,VALID,0,VALID,89.113,VALID,0,VALID,25.5727,VALID,27,VALID,0.673047,
2009-02-25, 01:41:04,VALID,1001.21,VALID,0,VALID,89.174,VALID,0,VALID,25.5318,VALID,18,VALID,0.876953,
2009-02-25, 01:42:04,VALID,1001.17,VALID,0,VALID,89.0748,VALID,0.100563,VALID,25.5532,VALID,15,VALID,1.49023,
2009-02-25, 01:43:04,VALID,1001.15,VALID,0,VALID,88.9451,VALID,0.100563,VALID,25.5513,VALID,18,VALID,1.40391,
2009-02-25, 01:44:04,VALID,1001.12,VALID,0,VALID,88.8765,VALID,0.100563,VALID,25.5707,VALID,38,VALID,1.23828,
2009-02-25, 01:45:04,VALID,1001.07,VALID,0,VALID,88.9604,VALID,0.100563,VALID,25.5513,VALID,34,VALID,1.05469,
2009-02-25, 01:46:04,VALID,1001.07,VALID,0,VALID,88.9909,VALID,0,VALID,25.5318,VALID,28,VALID,1.70977,
2009-02-25, 01:47:04,VALID,1001.04,VALID,0,VALID,89.029,VALID,0.100563,VALID,25.5727,VALID,14,VALID,0.881641,
2009-02-25, 01:48:04,VALID,1001.01,VALID,0,VALID,89.113,VALID,0.100563,VALID,25.5318,VALID,32,VALID,1.02031,
2009-02-25, 01:49:04,VALID,1001.04,VALID,0,VALID,89.2121,VALID,0.100563,VALID,25.5318,VALID,8,VALID,1.34805,
2009-02-25, 01:50:04,VALID,1001.02,VALID,0,VALID,89.235,VALID,0.100563,VALID,25.5123,VALID,49,VALID,0.780859,
2009-02-25, 01:51:04,VALID,1001.03,VALID,0,VALID,89.3189,VALID,0.100563,VALID,25.4928,VALID,34,VALID,1.1457,
2009-02-25, 01:52:04,VALID,1000.99,VALID,0,VALID,89.3952,VALID,0.100563,VALID,25.4928,VALID,20,VALID,0.916016,
2009-02-25, 01:53:04,VALID,1001,VALID,0,VALID,89.3418,VALID,0.100563,VALID,25.5142,VALID,29,VALID,1.30391,
2009-02-25, 01:54:04,VALID,1001.03,VALID,0,VALID,89.4028,VALID,0.100563,VALID,25.4928,VALID,19,VALID,1.01719,
2009-02-25, 01:55:04,VALID,1001.04,VALID,0,VALID,89.235,VALID,0.100563,VALID,25.4928,VALID,29,VALID,1.01406,
2009-02-25, 01:56:04,VALID,1001.01,VALID,0,VALID,89.3342,VALID,0,VALID,25.5142,VALID,17,VALID,1.01836,
2009-02-25, 01:57:04,VALID,1001.01,VALID,0,VALID,89.2198,VALID,0,VALID,25.4948,VALID,31,VALID,1.70273,
2009-02-25, 01:58:04,VALID,1001.04,VALID,0,VALID,89.4105,VALID,0,VALID,25.5142,VALID,7,VALID,0.871484,
2009-02-25, 01:59:04,VALID,1001.02,VALID,0,VALID,89.2732,VALID,0,VALID,25.4948,VALID,38,VALID,1.28633,
2009-02-25, 02:00:04,VALID,1001.03,VALID,0,VALID,89.3876,VALID,0,VALID,25.4753,VALID,24,VALID,0.906641,
2009-02-25, 02:01:04,VALID,1001.02,VALID,0,VALID,89.4563,VALID,0,VALID,25.4539,VALID,25,VALID,0.774609,
2009-02-25, 02:02:04,VALID,1001.04,VALID,0,VALID,89.5097,VALID,0,VALID,25.4558,VALID,28,VALID,0.725,
2009-02-25, 02:03:04,VALID,1001.04,VALID,0,VALID,89.4486,VALID,0,VALID,25.4753,VALID,15,VALID,0.806641,
2009-02-25, 02:04:04,VALID,1001.05,VALID,0,VALID,89.4334,VALID,0,VALID,25.4734,VALID,7,VALID,1.17617,
2009-02-25, 02:05:04,VALID,1001.06,VALID,0,VALID,89.3571,VALID,0,VALID,25.4948,VALID,24,VALID,0.923047,
2009-02-25, 02:06:04,VALID,1001.05,VALID,0,VALID,89.2732,VALID,0,VALID,25.4948,VALID,42,VALID,1.26367,
2009-02-25, 02:07:04,VALID,1001.1,VALID,0,VALID,89.1816,VALID,0,VALID,25.5532,VALID,15,VALID,0.776563,
2009-02-25, 02:08:04,VALID,1001.08,VALID,0,VALID,89.0443,VALID,0,VALID,25.5123,VALID,2,VALID,0.934375,
2009-02-25, 02:09:04,VALID,1001.08,VALID,0,VALID,88.9451,VALID,0,VALID,25.5551,VALID,9,VALID,0.782422,
2009-02-25, 02:10:04,VALID,1001.09,VALID,0,VALID,88.9222,VALID,0,VALID,25.5532,VALID,18,VALID,0.332812,
2009-02-25, 02:11:04,VALID,1001.13,VALID,0,VALID,88.8078,VALID,0,VALID,25.5513,VALID,353,VALID,0.551172,
2009-02-25, 02:12:04,VALID,1001.14,VALID,0,VALID,88.6705,VALID,0.100563,VALID,25.5707,VALID,23,VALID,1.60781,
2009-02-25, 02:13:04,VALID,1001.16,VALID,0.5,VALID,88.64,VALID,0.100563,VALID,25.6097,VALID,6,VALID,0.725781,
2009-02-25, 02:14:04,VALID,1001.17,VALID,0,VALID,88.5179,VALID,0.100563,VALID,25.5902,VALID,45,VALID,0.876562,
2009-02-25, 02:15:04,VALID,1001.19,VALID,0,VALID,88.6171,VALID,0.100563,VALID,25.6097,VALID,27,VALID,0.404687,
2009-02-25, 02:16:04,VALID,1001.21,VALID,0,VALID,88.5789,VALID,0.100563,VALID,25.6097,VALID,55,VALID,0.509766,
2009-02-25, 02:17:04,VALID,1001.2,VALID,0,VALID,88.5637,VALID,0.100563,VALID,25.5902,VALID,28,VALID,0.787891,
2009-02-25, 02:18:04,VALID,1001.25,VALID,0,VALID,88.6552,VALID,0.100563,VALID,25.6097,VALID,42,VALID,0.542969,
2009-02-25, 02:19:04,VALID,1001.26,VALID,0,VALID,88.6323,VALID,0.100563,VALID,25.5707,VALID,11,VALID,0.786328,
2009-02-25, 02:20:04,VALID,1001.27,VALID,0,VALID,88.7468,VALID,0,VALID,25.5707,VALID,20,VALID,0.936719,
2009-02-25, 02:21:04,VALID,1001.29,VALID,0,VALID,88.8536,VALID,0.100563,VALID,25.5493,VALID,16,VALID,0.920703,
2009-02-25, 02:22:04,VALID,1001.31,VALID,0,VALID,88.8993,VALID,0.100563,VALID,25.5318,VALID,18,VALID,0.782812,
2009-02-25, 02:23:04,VALID,1001.35,VALID,0,VALID,89.029,VALID,0.100563,VALID,25.5318,VALID,29,VALID,0.450781,
2009-02-25, 02:24:04,VALID,1001.39,VALID,0,VALID,89.1892,VALID,0.100563,VALID,25.4714,VALID,30,VALID,0.0910156,
2009-02-25, 02:25:04,VALID,1001.41,VALID,0,VALID,89.296,VALID,0.100563,VALID,25.452,VALID,30,VALID,0.0433594,
2009-02-25, 02:26:04,VALID,1001.42,VALID,0,VALID,89.4563,VALID,0,VALID,25.4149,VALID,30,VALID,0.11875,
2009-02-25, 02:27:04,VALID,1001.44,VALID,0,VALID,89.5554,VALID,0,VALID,25.4169,VALID,30,VALID,0,
2009-02-25, 02:28:04,VALID,1001.44,VALID,0,VALID,89.8758,VALID,0.100563,VALID,25.4363,VALID,272,VALID,0.664844,
2009-02-25, 02:29:04,VALID,1001.47,VALID,0,VALID,90.0894,VALID,0,VALID,25.376,VALID,172,VALID,0.649219,
2009-02-25, 02:30:04,VALID,1001.5,VALID,0,VALID,90.1963,VALID,0,VALID,25.337,VALID,172,VALID,0.366016,
2009-02-25, 02:31:04,VALID,1001.52,VALID,0,VALID,90.3946,VALID,0.100563,VALID,25.339,VALID,172,VALID,0,
2009-02-25, 02:32:04,VALID,1001.52,VALID,0,VALID,90.6158,VALID,0,VALID,25.2786,VALID,172,VALID,0,
2009-02-25, 02:33:04,VALID,1001.52,VALID,0,VALID,90.8295,VALID,0,VALID,25.3195,VALID,172,VALID,0.00429688,
2009-02-25, 02:34:04,VALID,1001.53,VALID,0,VALID,90.982,VALID,0,VALID,25.3,VALID,172,VALID,0,
2009-02-25, 02:35:04,VALID,1001.55,VALID,0,VALID,91.0812,VALID,0,VALID,25.2825,VALID,172,VALID,0,
2009-02-25, 02:36:04,VALID,1001.54,VALID,0,VALID,91.0659,VALID,0,VALID,25.2202,VALID,172,VALID,0,
2009-02-25, 02:37:04,VALID,1001.53,VALID,0,VALID,91.1651,VALID,0,VALID,25.1618,VALID,172,VALID,0,
2009-02-25, 02:38:04,VALID,1001.53,VALID,0,VALID,91.2796,VALID,0,VALID,25.1618,VALID,172,VALID,0,
2009-02-25, 02:39:04,VALID,1001.53,VALID,0,VALID,91.4321,VALID,0.100563,VALID,25.1656,VALID,172,VALID,0,
2009-02-25, 02:40:04,VALID,1001.51,VALID,0,VALID,91.5771,VALID,0,VALID,25.1442,VALID,172,VALID,0,
2009-02-25, 02:41:04,VALID,1001.51,VALID,0,VALID,91.6152,VALID,0,VALID,25.1053,VALID,172,VALID,0,
2009-02-25, 02:42:04,VALID,1001.53,VALID,0,VALID,91.7525,VALID,0,VALID,25.1053,VALID,172,VALID,0,
2009-02-25, 02:43:04,VALID,1001.51,VALID,0,VALID,91.8594,VALID,0,VALID,25.0858,VALID,172,VALID,0,
2009-02-25, 02:44:04,VALID,1001.55,VALID,0,VALID,91.9356,VALID,0,VALID,25.0858,VALID,172,VALID,0.36875,
2009-02-25, 02:45:04,VALID,1001.52,VALID,0,VALID,92.0348,VALID,0,VALID,25.0469,VALID,172,VALID,0.373828,
2009-02-25, 02:46:04,VALID,1001.54,VALID,0,VALID,92.134,VALID,0,VALID,25.0469,VALID,172,VALID,0.0742188,
2009-02-25, 02:47:04,VALID,1001.56,VALID,0,VALID,92.2789,VALID,0,VALID,25.0274,VALID,172,VALID,0.230469,
2009-02-25, 02:48:04,VALID,1001.54,VALID,0.5,VALID,92.401,VALID,0,VALID,25.0274,VALID,172,VALID,0.0515625,
2009-02-25, 02:49:04,VALID,1001.55,VALID,0,VALID,92.4391,VALID,0,VALID,24.9866,VALID,172,VALID,0.0515625,
2009-02-25, 02:50:04,VALID,1001.54,VALID,0,VALID,92.4849,VALID,0,VALID,24.9885,VALID,172,VALID,0.269531,
2009-02-25, 02:51:04,VALID,1001.55,VALID,0,VALID,92.5612,VALID,0,VALID,24.9495,VALID,172,VALID,0.04375,
2009-02-25, 02:52:04,VALID,1001.55,VALID,0,VALID,92.6299,VALID,0,VALID,24.9087,VALID,172,VALID,0,
2009-02-25, 02:53:04,VALID,1001.54,VALID,0,VALID,92.8053,VALID,0,VALID,24.93,VALID,172,VALID,0.0660156,
2009-02-25, 02:54:04,VALID,1001.57,VALID,0,VALID,92.8664,VALID,0,VALID,24.93,VALID,172,VALID,0,
2009-02-25, 02:55:04,VALID,1001.59,VALID,0,VALID,92.9121,VALID,0,VALID,24.93,VALID,172,VALID,0.00429688,
2009-02-25, 02:56:04,VALID,1001.59,VALID,0,VALID,92.9503,VALID,0,VALID,24.9106,VALID,172,VALID,0.0449219,
2009-02-25, 02:57:04,VALID,1001.56,VALID,0,VALID,93.0037,VALID,0,VALID,24.9106,VALID,172,VALID,0.213672,
2009-02-25, 02:58:04,VALID,1001.58,VALID,0,VALID,93.0266,VALID,0,VALID,24.9106,VALID,172,VALID,0.0046875,
2009-02-25, 02:59:04,VALID,1001.58,VALID,0,VALID,93.08,VALID,0,VALID,24.8911,VALID,172,VALID,0,
2009-02-25, 03:00:04,VALID,1001.57,VALID,0,VALID,93.0876,VALID,0,VALID,24.8522,VALID,172,VALID,0.189844,
2009-02-25, 03:01:04,VALID,1001.57,VALID,0,VALID,93.1181,VALID,0,VALID,24.8327,VALID,172,VALID,0.253125,
2009-02-25, 03:02:04,VALID,1001.57,VALID,0,VALID,93.1868,VALID,0,VALID,24.7919,VALID,172,VALID,0.417578,
2009-02-25, 03:03:04,VALID,1001.56,VALID,0.5,VALID,93.2783,VALID,0,VALID,24.7937,VALID,172,VALID,0.273828,
2009-02-25, 03:04:04,VALID,1001.53,VALID,0,VALID,93.3775,VALID,0,VALID,24.8132,VALID,172,VALID,0.195703,
2009-02-25, 03:05:04,VALID,1001.51,VALID,0,VALID,93.4309,VALID,0,VALID,24.7937,VALID,172,VALID,0.144141,
2009-02-25, 03:06:04,VALID,1001.51,VALID,0,VALID,93.4843,VALID,0.100563,VALID,24.7937,VALID,172,VALID,0,
2009-02-25, 03:07:04,VALID,1001.51,VALID,0,VALID,93.4843,VALID,0,VALID,24.7937,VALID,172,VALID,0,
2009-02-25, 03:08:04,VALID,1001.48,VALID,0,VALID,93.5224,VALID,0,VALID,24.7937,VALID,172,VALID,0,
2009-02-25, 03:09:04,VALID,1001.49,VALID,0,VALID,93.5224,VALID,0,VALID,24.7743,VALID,172,VALID,0,
2009-02-25, 03:10:04,VALID,1001.48,VALID,0,VALID,93.5453,VALID,0,VALID,24.7548,VALID,172,VALID,0,
2009-02-25, 03:11:04,VALID,1001.46,VALID,0,VALID,93.553,VALID,0,VALID,24.7353,VALID,172,VALID,0,
2009-02-25, 03:12:04,VALID,1001.43,VALID,0,VALID,93.5682,VALID,0,VALID,24.7353,VALID,172,VALID,0,
2009-02-25, 03:13:04,VALID,1001.44,VALID,0,VALID,93.614,VALID,0,VALID,24.7159,VALID,172,VALID,0,
2009-02-25, 03:14:04,VALID,1001.47,VALID,0,VALID,93.6369,VALID,0,VALID,24.6945,VALID,172,VALID,0,
2009-02-25, 03:15:04,VALID,1001.46,VALID,0,VALID,93.7055,VALID,0,VALID,24.7159,VALID,172,VALID,0,
2009-02-25, 03:16:04,VALID,1001.48,VALID,0,VALID,93.7284,VALID,0,VALID,24.7159,VALID,172,VALID,0.0015625,
2009-02-25, 03:17:04,VALID,1001.5,VALID,0,VALID,93.7437,VALID,0,VALID,24.7159,VALID,172,VALID,0,
2009-02-25, 03:18:04,VALID,1001.49,VALID,0,VALID,93.7361,VALID,0,VALID,24.6964,VALID,172,VALID,0,
2009-02-25, 03:19:04,VALID,1001.52,VALID,0,VALID,93.7895,VALID,0,VALID,24.6964,VALID,172,VALID,0,
2009-02-25, 03:20:04,VALID,1001.54,VALID,0,VALID,93.7971,VALID,0,VALID,24.6769,VALID,172,VALID,0.261719,
2009-02-25, 03:21:04,VALID,1001.53,VALID,0,VALID,93.8276,VALID,0,VALID,24.6769,VALID,172,VALID,0.331641,
2009-02-25, 03:22:04,VALID,1001.6,VALID,0.5,VALID,93.8734,VALID,0,VALID,24.6769,VALID,143,VALID,0.455469,
2009-02-25, 03:23:04,VALID,1001.62,VALID,0,VALID,93.8963,VALID,0,VALID,24.6574,VALID,137,VALID,0.374609,
2009-02-25, 03:24:04,VALID,1001.66,VALID,0,VALID,93.8886,VALID,0,VALID,24.6574,VALID,137,VALID,0.187891,
2009-02-25, 03:25:04,VALID,1001.66,VALID,0,VALID,93.9115,VALID,0,VALID,24.6574,VALID,137,VALID,0.195313,
2009-02-25, 03:26:04,VALID,1001.69,VALID,0,VALID,93.9115,VALID,0,VALID,24.638,VALID,137,VALID,0,
2009-02-25, 03:27:04,VALID,1001.67,VALID,0,VALID,93.9344,VALID,0,VALID,24.638,VALID,137,VALID,0,
2009-02-25, 03:28:04,VALID,1001.68,VALID,0,VALID,93.9573,VALID,0,VALID,24.6398,VALID,137,VALID,0,
2009-02-25, 03:29:04,VALID,1001.7,VALID,0,VALID,94.0107,VALID,0,VALID,24.6185,VALID,137,VALID,0,
2009-02-25, 03:30:04,VALID,1001.68,VALID,0,VALID,94.0259,VALID,0,VALID,24.6185,VALID,137,VALID,0,
2009-02-25, 03:31:04,VALID,1001.69,VALID,0,VALID,94.0336,VALID,0,VALID,24.6185,VALID,137,VALID,0,
2009-02-25, 03:32:04,VALID,1001.67,VALID,0,VALID,94.0488,VALID,0,VALID,24.5972,VALID,137,VALID,0,
2009-02-25, 03:33:04,VALID,1001.65,VALID,0,VALID,94.0946,VALID,0,VALID,24.6185,VALID,137,VALID,0,
2009-02-25, 03:34:04,VALID,1001.65,VALID,0,VALID,94.148,VALID,0,VALID,24.6398,VALID,137,VALID,0,
2009-02-25, 03:35:04,VALID,1001.66,VALID,0,VALID,94.1785,VALID,0,VALID,24.6574,VALID,137,VALID,0,
2009-02-25, 03:36:04,VALID,1001.63,VALID,0,VALID,94.1633,VALID,0,VALID,24.6166,VALID,137,VALID,0,
2009-02-25, 03:37:04,VALID,1001.59,VALID,0,VALID,94.1328,VALID,0,VALID,24.638,VALID,137,VALID,0,
2009-02-25, 03:38:04,VALID,1001.62,VALID,0,VALID,94.1556,VALID,0,VALID,24.638,VALID,137,VALID,0,
2009-02-25, 03:39:04,VALID,1001.62,VALID,0,VALID,94.1785,VALID,0,VALID,24.6788,VALID,137,VALID,0,
2009-02-25, 03:40:04,VALID,1001.64,VALID,0,VALID,94.1938,VALID,0,VALID,24.638,VALID,137,VALID,0,
2009-02-25, 03:41:04,VALID,1001.62,VALID,0,VALID,94.1709,VALID,0,VALID,24.638,VALID,137,VALID,0,
2009-02-25, 03:42:04,VALID,1001.64,VALID,0,VALID,94.148,VALID,0,VALID,24.6185,VALID,137,VALID,0,
2009-02-25, 03:43:04,VALID,1001.63,VALID,0,VALID,94.1328,VALID,0,VALID,24.5796,VALID,137,VALID,0,
2009-02-25, 03:44:04,VALID,1001.67,VALID,0,VALID,94.1556,VALID,0,VALID,24.5406,VALID,133,VALID,0,
2009-02-25, 03:45:04,VALID,1001.67,VALID,0,VALID,94.209,VALID,0,VALID,24.5388,VALID,133,VALID,0,
2009-02-25, 03:46:04,VALID,1001.7,VALID,0,VALID,94.2472,VALID,0,VALID,24.5601,VALID,133,VALID,0,
2009-02-25, 03:47:04,VALID,1001.74,VALID,0,VALID,94.2472,VALID,0,VALID,24.5388,VALID,133,VALID,0,